Weather History for Meridian NAS, MS

Change the Weather History Date:

Friday, November 15, 2013

  Actual Average Record
Temperature  
Mean Temperature 51 °F -  
Max Temperature 57 °F 63 °F 82 °F (2005)
Min Temperature 45 °F 44 °F 27 °F (2000)
Degree Days  
Heating Degree Days 14    
Growing Degree Days 1 (Base 50)    
Moisture  
Dew Point 49 °F    
Average Humidity 89    
Maximum Humidity 100    
Minimum Humidity 71    
Precipitation  
Precipitation 0.99 in - - ()
Sea Level Pressure  
Sea Level Pressure 30.14 in    
Wind  
Wind Speed 3 mph (East)    
Max Wind Speed 12 mph    
Max Gust Speed -    
Visibility 6 miles    
Events Rain    
Averages and records for this station are not official NWS values.
T = Trace of Precipitation, MM = Missing Value Source: NWS Daily Summary

Daily Weather History Graph

Daily Weather History Graph

Search for Another Location

Airport:

Trip Planner

Search our weather history database for the weather conditions in past years. The results will help you decide how hot, cold, wet, or windy it might be!

Date:

Astronomy

Nov. 15, 2013 Rise Set
Actual Time 6:24 AM CST 4:53 PM CST
Civil Twilight 5:58 AM CST 5:19 PM CST
Nautical Twilight 5:28 AM CST 5:49 PM CST
Astronomical Twilight 4:59 AM CST 6:18 PM CST
Moon 3:45 PM CST (11/15) 4:26 AM CST (11/15)
Length of Visible Light 11h 21m
Length of Day
10h 29m
Waxing Gibbous, 96% of the Moon is Illuminated
Nov 15
Waxing Gibbous
Nov 17
Full
Nov 25
Last Quarter
Dec 2
New
Dec 9
First Quarter

Hourly Weather History & Observations

Time (CST) Temp. Windchill Dew Point Humidity Pressure Visibility Wind Dir Wind Speed Gust Speed Precip Events Conditions
12:56 AM 45.0 °F - 37.9 °F 76% 30.22 in 10.0 mi Calm Calm - N/A   Mostly Cloudy
1:56 AM 46.0 °F - 39.0 °F 76% 30.21 in 10.0 mi Calm Calm - N/A   Mostly Cloudy
2:56 AM 45.0 °F 43.5 °F 39.9 °F 82% 30.20 in 10.0 mi ESE 3.5 mph - N/A   Overcast
3:56 AM 46.9 °F - 39.9 °F 77% 30.19 in 10.0 mi Calm Calm - N/A   Mostly Cloudy
4:56 AM 46.9 °F - 41.0 °F 80% 30.19 in 10.0 mi Calm Calm - N/A   Overcast
5:56 AM 48.9 °F - 39.9 °F 71% 30.20 in 10.0 mi Calm Calm - N/A   Mostly Cloudy
6:02 AM 48.2 °F - 39.2 °F 71% 30.17 in 10.0 mi Calm Calm - 0.00 in Rain Light Rain
6:56 AM 48.0 °F - 41.0 °F 77% 30.19 in 10.0 mi East 5.8 mph - 0.00 in   Overcast
7:56 AM 48.9 °F - 42.1 °F 77% 30.20 in 10.0 mi Calm Calm - N/A   Overcast
8:21 AM 50.0 °F - 42.8 °F 76% 30.16 in 9.0 mi East 4.6 mph - 0.00 in Rain Light Rain
8:56 AM 50.0 °F - 46.0 °F 86% 30.19 in 9.0 mi ESE 3.5 mph - 0.01 in Rain Light Rain
9:56 AM 52.0 °F - 48.0 °F 86% 30.19 in 10.0 mi North 3.5 mph - 0.00 in Rain Light Rain
10:08 AM 51.8 °F - 48.2 °F 88% 30.16 in 8.0 mi NNW 4.6 mph - 0.01 in Rain Light Rain
10:17 AM 51.8 °F - 48.2 °F 88% 30.17 in 4.0 mi NW 5.8 mph - 0.02 in Rain Rain
10:24 AM 51.8 °F - 48.2 °F 88% 30.17 in 1.8 mi NNW 3.5 mph - 0.06 in Rain Heavy Rain
10:36 AM 51.8 °F - 48.2 °F 88% 30.16 in 1.0 mi NNW 5.8 mph - 0.19 in Rain Heavy Rain
10:56 AM 51.1 °F - 48.9 °F 92% 30.19 in 1.0 mi North 6.9 mph - 0.37 in Rain Heavy Rain
11:50 AM 51.8 °F - 48.2 °F 88% 30.15 in 2.0 mi NE 8.1 mph - 0.58 in Rain Rain
11:56 AM 50.0 °F - 48.9 °F 96% 30.19 in 2.5 mi NE 4.6 mph - 0.59 in Rain Rain
12:04 PM 51.8 °F - 48.2 °F 88% 30.14 in 4.0 mi North 3.5 mph - 0.01 in Rain Light Rain
12:45 PM 51.8 °F - 51.8 °F 100% 30.13 in 6.0 mi East 3.5 mph - 0.02 in Rain Light Rain
12:56 PM 53.1 °F - 51.1 °F 93% 30.16 in 7.0 mi Calm Calm - 0.02 in   Overcast
1:05 PM 53.6 °F - 51.8 °F 94% 30.12 in 7.0 mi East 4.6 mph - N/A   Overcast
1:56 PM 53.1 °F - 52.0 °F 96% 30.12 in 6.0 mi East 9.2 mph - N/A   Overcast
2:52 PM 55.4 °F - 53.6 °F 94% 30.05 in 10.0 mi SE 5.8 mph - N/A   Overcast
2:56 PM 55.9 °F - 54.0 °F 93% 30.09 in 10.0 mi SE 6.9 mph - N/A   Overcast
3:12 PM 55.4 °F - 53.6 °F 94% 30.07 in 10.0 mi Calm Calm - 0.00 in Rain Light Rain
3:41 PM 57.2 °F - 53.6 °F 88% 30.07 in 10.0 mi Calm Calm - 0.00 in   Overcast
3:56 PM 57.0 °F - 54.0 °F 89% 30.11 in 10.0 mi ESE 5.8 mph - 0.00 in   Overcast
4:56 PM 55.9 °F - 54.0 °F 93% 30.11 in 10.0 mi East 9.2 mph - N/A   Overcast
5:56 PM 55.0 °F - 53.1 °F 93% 30.13 in 10.0 mi ESE 11.5 mph - N/A   Overcast
6:56 PM 55.0 °F - 53.1 °F 93% 30.13 in 10.0 mi ESE 8.1 mph - N/A   Overcast
7:23 PM 55.4 °F - 53.6 °F 94% 30.10 in 8.0 mi ESE 5.8 mph - N/A   Overcast
7:56 PM 55.0 °F - 54.0 °F 96% 30.15 in 5.0 mi ESE 4.6 mph - N/A   Overcast
8:56 PM 55.0 °F - 54.0 °F 96% 30.15 in 4.0 mi ESE 4.6 mph - N/A   Overcast
9:07 PM 55.4 °F - 53.6 °F 94% 30.12 in 2.0 mi ESE 4.6 mph - N/A   Overcast
9:16 PM 55.4 °F - 53.6 °F 94% 30.11 in 1.5 mi ESE 3.5 mph - N/A   Overcast
9:56 PM 55.0 °F - 54.0 °F 96% 30.14 in 1.2 mi Calm Calm - N/A   Overcast
10:12 PM 55.4 °F - 53.6 °F 94% 30.11 in 0.8 mi Calm Calm - N/A   Mist
10:52 PM 55.4 °F - 53.6 °F 94% 30.12 in 1.0 mi Calm Calm - N/A   Mist
10:56 PM 55.0 °F - 54.0 °F 96% 30.15 in 1.0 mi Calm Calm - N/A   Mist
11:04 PM 55.4 °F - 53.6 °F 94% 30.11 in 0.8 mi Calm Calm - N/A   Mist
11:46 PM 55.4 °F - 55.4 °F 100% 30.10 in 1.0 mi ESE 5.8 mph - N/A   Mist
11:54 PM 55.4 °F - 55.4 °F 100% 30.10 in 0.8 mi ESE 4.6 mph - N/A   Mist
11:56 PM 55.9 °F - 55.0 °F 97% 30.13 in 0.8 mi ESE 4.6 mph - N/A   Mist